Change the Weather History Date:

Tuesday, January 10, 2012

  Actual Average Record
Temperature  
Mean Temperature 34 °F -  
Max Temperature 50 °F 17 °F 50 °F (2012)
Min Temperature 17 °F -6 °F -32 °F (1982)
Degree Days  
Heating Degree Days 32    
Moisture  
Dew Point 20 °F    
Average Humidity 66    
Maximum Humidity 86    
Minimum Humidity 32    
Precipitation  
Precipitation 0.00 in - - ()
Sea Level Pressure  
Sea Level Pressure 29.74 in    
Wind  
Wind Speed 2 mph (SW)    
Max Wind Speed 10 mph    
Max Gust Speed -    
Visibility 10 miles    
Events      
Averages and records for this station are not official NWS values.
T = Trace of Precipitation, MM = Missing Value Source: NWS Daily Summary

Daily Weather History Graph

Daily Weather History Graph

Search for Another Location

Airport or City:

Trip Planner

Search our weather history database for the weather conditions in past years. The results will help you decide how hot, cold, wet, or windy it might be!

Date:

Astronomy

Jan. 10, 2012 Rise Set
Actual Time 7:53 AM CST 4:44 PM CST
Civil Twilight 7:19 AM CST 5:18 PM CST
Nautical Twilight 6:41 AM CST 5:56 PM CST
Astronomical Twilight 6:05 AM CST 6:32 PM CST
Moon 6:45 PM CST (1/10) 8:24 AM CST (1/10)
Length of Visible Light 9h 59m
Length of Day
8h 51m
Full, 98% of the Moon is Illuminated
Jan 10
Full
Jan 16
Last Quarter
Jan 23
New
Jan 30
First Quarter
Feb 7
Full

Hourly Weather History & Observations

Time (CST) Temp. Windchill Dew Point Humidity Pressure Visibility Wind Dir Wind Speed Gust Speed Precip Events Conditions
12:10 AM 21.2 °F - 17.6 °F 86% 29.89 in 10.0 mi Calm Calm - N/A   Mostly Cloudy
12:29 AM 21.2 °F - 15.8 °F 80% 29.90 in 10.0 mi Calm Calm - N/A   Mostly Cloudy
12:49 AM 21.2 °F - 15.8 °F 80% 29.89 in 10.0 mi Calm Calm - N/A   Mostly Cloudy
1:09 AM 21.2 °F - 15.8 °F 80% 29.89 in 10.0 mi Calm Calm - N/A   Mostly Cloudy
1:30 AM 21.2 °F - 17.6 °F 86% 29.90 in 10.0 mi Calm Calm - N/A   Scattered Clouds
1:50 AM 21.2 °F - 15.8 °F 80% 29.90 in 10.0 mi Calm Calm - N/A   Mostly Cloudy
2:10 AM 23.0 °F - 17.6 °F 80% 29.90 in 10.0 mi Calm Calm - N/A   Mostly Cloudy
2:30 AM 19.4 °F - 12.2 °F 74% 29.89 in 10.0 mi Calm Calm - N/A   Scattered Clouds
2:50 AM 19.4 °F - 12.2 °F 74% 29.89 in 10.0 mi Calm Calm - N/A   Scattered Clouds
3:10 AM 21.2 °F - 14.0 °F 74% 29.88 in 10.0 mi Calm Calm - N/A   Scattered Clouds
3:30 AM 19.4 °F - 12.2 °F 74% 29.88 in 10.0 mi Calm Calm - N/A   Scattered Clouds
3:50 AM 19.4 °F - 14.0 °F 80% 29.86 in 10.0 mi Calm Calm - N/A   Scattered Clouds
4:10 AM 19.4 °F - 14.0 °F 80% 29.83 in 10.0 mi Calm Calm - N/A   Scattered Clouds
4:29 AM 19.4 °F - 12.2 °F 74% 29.82 in 10.0 mi Calm Calm - N/A   Scattered Clouds
4:50 AM 19.4 °F - 12.2 °F 74% 29.81 in 10.0 mi Calm Calm - N/A   Scattered Clouds
5:09 AM 19.4 °F - 14.0 °F 80% 29.80 in 10.0 mi Calm Calm - N/A   Scattered Clouds
5:30 AM 17.6 °F - 12.2 °F 79% 29.80 in 10.0 mi Calm Calm - N/A   Scattered Clouds
5:50 AM 21.2 °F - 17.6 °F 86% 29.79 in 10.0 mi Calm Calm - N/A   Scattered Clouds
6:10 AM 21.2 °F - 15.8 °F 80% 29.79 in 10.0 mi Calm Calm - N/A   Scattered Clouds
6:30 AM 19.4 °F - 14.0 °F 80% 29.79 in 10.0 mi Calm Calm - N/A   Mostly Cloudy
6:50 AM 19.4 °F - 14.0 °F 80% 29.79 in 10.0 mi Calm Calm - N/A   Scattered Clouds
7:10 AM 19.4 °F 11.5 °F 14.0 °F 80% 29.79 in 10.0 mi SW 5.8 mph - N/A   Scattered Clouds
7:30 AM 21.2 °F 14.9 °F 15.8 °F 80% 29.79 in 10.0 mi SSW 4.6 mph - N/A   Scattered Clouds
7:50 AM 26.6 °F 21.2 °F 21.2 °F 80% 29.77 in 10.0 mi SSW 4.6 mph - N/A   Scattered Clouds
8:10 AM 26.6 °F 22.6 °F 21.2 °F 80% 29.76 in 10.0 mi SSW 3.5 mph - N/A   Clear
8:30 AM 26.6 °F 21.2 °F 21.2 °F 80% 29.76 in 10.0 mi SSW 4.6 mph - N/A   Clear
8:50 AM 28.4 °F 23.3 °F 21.2 °F 74% 29.75 in 10.0 mi SSW 4.6 mph - N/A   Clear
9:10 AM 30.2 °F 23.4 °F 23.0 °F 75% 29.74 in 10.0 mi SSW 6.9 mph - N/A   Clear
9:50 AM 32.0 °F 25.6 °F 24.8 °F 75% 29.73 in 10.0 mi SSW 6.9 mph - N/A   Clear
10:10 AM 32.0 °F 25.6 °F 24.8 °F 75% 29.73 in 10.0 mi SW 6.9 mph - N/A   Clear
10:30 AM 33.8 °F 26.4 °F 24.8 °F 70% 29.73 in 10.0 mi SW 9.2 mph - N/A   Clear
10:50 AM 37.4 °F 31.4 °F 24.8 °F 60% 29.73 in 10.0 mi SW 8.1 mph - N/A   Clear
11:10 AM 37.4 °F 30.8 °F 24.8 °F 60% 29.72 in 10.0 mi SW 9.2 mph - N/A   Clear
11:30 AM 39.2 °F 32.5 °F 23.0 °F 52% 29.71 in 10.0 mi SSW 10.4 mph - N/A   Clear
11:49 AM 41.0 °F 35.2 °F 23.0 °F 49% 29.69 in 10.0 mi SSW 9.2 mph - N/A   Clear
12:09 PM 42.8 °F 38.0 °F 23.0 °F 46% 29.68 in 10.0 mi SSW 8.1 mph - N/A   Clear
12:29 PM 42.8 °F 38.0 °F 23.0 °F 46% 29.68 in 10.0 mi SSW 8.1 mph - N/A   Clear
12:49 PM 44.6 °F 40.7 °F 23.0 °F 43% 29.67 in 10.0 mi SW 6.9 mph - N/A   Clear
1:29 PM 48.2 °F - 21.2 °F 34% 29.66 in 10.0 mi West 3.5 mph - N/A   Clear
1:49 PM 50.0 °F - 21.2 °F 32% 29.65 in 10.0 mi WNW 4.6 mph - N/A   Clear
2:09 PM 46.4 °F 44.3 °F 21.2 °F 37% 29.65 in 10.0 mi NW 4.6 mph - N/A   Clear
2:29 PM 46.4 °F 42.9 °F 21.2 °F 37% 29.65 in 10.0 mi NW 6.9 mph - N/A   Clear
2:49 PM 46.4 °F 45.2 °F 21.2 °F 37% 29.64 in 10.0 mi NW 3.5 mph - N/A   Clear
3:09 PM 46.4 °F 43.5 °F 21.2 °F 37% 29.65 in 10.0 mi WNW 5.8 mph - N/A   Clear
3:29 PM 46.4 °F 44.3 °F 23.0 °F 40% 29.64 in 10.0 mi WNW 4.6 mph - N/A   Clear
3:49 PM 46.4 °F 45.2 °F 23.0 °F 40% 29.66 in 10.0 mi WNW 3.5 mph - N/A   Clear
4:09 PM 46.4 °F - 23.0 °F 40% 29.66 in 10.0 mi Calm Calm - N/A   Clear
4:29 PM 44.6 °F - 21.2 °F 39% 29.66 in 10.0 mi Calm Calm - N/A   Clear
4:50 PM 42.8 °F - 23.0 °F 46% 29.66 in 10.0 mi Calm Calm - N/A   Clear
5:10 PM 37.4 °F - 23.0 °F 56% 29.66 in 10.0 mi Calm Calm - N/A   Clear
5:30 PM 37.4 °F - 23.0 °F 56% 29.66 in 10.0 mi Calm Calm - N/A   Clear
5:50 PM 35.6 °F - 24.8 °F 65% 29.66 in 10.0 mi Calm Calm - N/A   Clear
6:10 PM 32.0 °F - 23.0 °F 69% 29.65 in 10.0 mi Calm Calm - N/A   Clear
6:29 PM 32.0 °F - 24.8 °F 75% 29.65 in 10.0 mi Calm Calm - N/A   Clear
6:49 PM 32.0 °F - 23.0 °F 69% 29.65 in 10.0 mi Calm Calm - N/A   Clear
7:09 PM 30.2 °F - 23.0 °F 75% 29.65 in 10.0 mi Calm Calm - N/A   Clear
7:29 PM 30.2 °F - 23.0 °F 75% 29.65 in 10.0 mi Calm Calm - N/A   Clear
7:49 PM 28.4 °F - 21.2 °F 74% 29.65 in 10.0 mi Calm Calm - N/A   Scattered Clouds
8:10 PM 30.2 °F - 23.0 °F 75% 29.63 in 10.0 mi Calm Calm - N/A   Clear
8:30 PM 30.2 °F - 23.0 °F 75% 29.63 in 10.0 mi Calm Calm - N/A   Clear
8:49 PM 28.4 °F - 21.2 °F 74% 29.62 in 10.0 mi Calm Calm - N/A   Clear
9:09 PM 30.2 °F - 23.0 °F 75% 29.62 in 10.0 mi Calm Calm - N/A   Clear
9:29 PM 30.2 °F - 21.2 °F 69% 29.62 in 10.0 mi Calm Calm - N/A   Clear
9:49 PM 30.2 °F - 21.2 °F 69% 29.61 in 10.0 mi Calm Calm - N/A   Clear
10:09 PM 30.2 °F - 23.0 °F 75% 29.61 in 10.0 mi Calm Calm - N/A   Clear
10:29 PM 30.2 °F - 23.0 °F 75% 29.60 in 10.0 mi Calm Calm - N/A   Clear
10:49 PM 28.4 °F - 23.0 °F 80% 29.60 in 10.0 mi Calm Calm - N/A   Clear
11:09 PM 32.0 °F - 23.0 °F 69% 29.60 in 10.0 mi Calm Calm - N/A   Clear
11:30 PM 30.2 °F - 23.0 °F 75% 29.59 in 10.0 mi Calm Calm - N/A   Clear
11:50 PM 30.2 °F - 23.0 °F 75% 29.59 in 10.0 mi Calm Calm - N/A   Clear